Regional Weather Roundup
Issued by NWS Wakefield, VA

Home | Current Version | Previous Version | Graphics & Text | Print | Product List | Glossary On
Versions: 1 2 3 4 5 6 7 8 9 10 11 12 13 14 15 16 17 18 19 20 21 22 23 24 25 26 27
000
ASUS41 KAKQ 231915
RWRAKQ

REGIONAL WEATHER ROUNDUP
NATIONAL WEATHER SERVICE WAKEFIELD VA
300 PM EDT SUN APR 23 2017

Note: "fair" indicates few or no clouds below 12,000 feet with no
significant weather and/or obstructions to visibility. * = Denotes
station may not report precipitation (e.g., rain,snow,etc.),
thunder or fog.

VAZ042-051-052>054-056-232000-
NORTHERN VIRGINIA

CITY           SKY/WX    TMP DP  RH WIND       PRES   REMARKS
WASH NATIONAL  CLOUDY    60  45  57 NE9       30.11F
DULLES         CLOUDY    59  42  53 NE6       30.10F
FORT BELVOIR   CLOUDY    59  42  53 CALM      30.10F
QUANTICO       MOSUNNY   59  46  62 NE7       30.11F
FREDERICKSBRG* PTSUNNY   58  45  62 E7        30.09F
STAFFORD*      CLOUDY    58  46  63 E6        30.13F
WARRENTON      MOSUNNY   59  39  46 E7        30.10F
CULPEPER*      CLOUDY    58  44  58 NE6       30.11F
MANASSAS*        N/A     59  42  53 VRB3      30.10F
LEESBURG*      PTSUNNY   61  43  51 SE6       30.10F
WINCHESTER     CLOUDY    57  39  51 SE5       30.08F
FRONT ROYAL*   CLOUDY    59  45  58 N3        30.08F
LURAY*         CLOUDY    55  43  62 CALM      30.08F
$$

VAZ048-049-060>072-079>083-232000-
CENTRAL AND SOUTH CENTRAL VIRGINIA

CITY           SKY/WX    TMP DP  RH WIND       PRES   REMARKS
RICHMOND       CLOUDY    57  47  69 E9        30.08F
CHESTERFIELD*  CLOUDY   N/A N/A N/A NE8       30.09F
PETERSBURG*    DRIZZLE   55  46  74 NE7       30.08F
HANOVER        CLOUDY    56  43  61 VRB5      30.10F
TAPPAHANNOCK*  CLOUDY    58  42  56 N5        30.10F
QUINTON*       CLOUDY    56  48  73 NE3       30.08F
CHARLOTTSVILLE MOSUNNY   57  41  55 NE7       30.09F
GORDONSVILLE*  CLOUDY    56  43  62 NE6       30.09F
ORANGE*        CLOUDY    54  43  66 CALM      30.10F
LOUISA*        CLOUDY    61  46  59 NE7       30.08S
BUMPASS*       FAIR      56  44  63 E3        30.09S
FARMVILLE*     LGT RAIN  55  50  82 NE8       30.07F
CREWE*         CLOUDY    53  53 100 NE3       30.08F
FORT PICKETT*  CLOUDY    53  49  85 NE8       30.08S
CHASE CITY*    CLOUDY    51  49  95 CALM      30.06F
CLARKSVILLE*   CLOUDY    50  50 100 NE7       30.05F
SOUTH HILL*    CLOUDY    51  51 100 N5        30.12S
LAWRENCEVILLE* CLOUDY    52  50  94 NE6       30.07S
EMPORIA*       LGT RAIN  52  52 100 N6        30.08S
$$

VAZ088>098-232000-
SOUTHEAST VIRGINIA

CITY           SKY/WX    TMP DP  RH WIND       PRES   REMARKS
NORFOLK        CLOUDY    56  50  80 NE14      30.07F
VIRGINIA BEACH CLOUDY    55  49  80 NE13      30.07S
NORFOLK NAVAL  CLOUDY    56  51  84 NE12      30.08F
WEST POINT*    MOSUNNY   58  47  66 NE12      30.09F
SALUDA*        FAIR      56  50  79 E8        30.08F
NEWPORT NEWS   LGT RAIN  55  52  89 NE7       30.07F
LANGLEY AFB    LGT RAIN  55  51  86 E16       30.07F
FORT EUSTIS    DRIZZLE   56  51  83 E9        30.05F
WILLIAMSBURG*  MOSUNNY   57  52  82 CALM      30.08F
HR EXEC AP*    CLOUDY    55  48  76 NE10G17   30.06F
FRANKLIN*      CLOUDY    54  51  89 NE7       30.06F
US460-WAKEFLD  LGT RAIN  55  52  89 VRB5      30.06F
$$

VAZ020-022-025-037-045-232000-
WEST CENTRAL AND SOUTHWEST VIRGINIA

CITY           SKY/WX    TMP DP  RH WIND       PRES   REMARKS
STAUNTON*      CLOUDY    55  41  60 NE7       30.10S
WAYNESBORO*    CLOUDY    54  43  65 NE5       30.07F
HOT SPRINGS VA CLOUDY    45  34  65 E9        30.05S
LYNCHBURG      LGT RAIN  50  44  80 NE12      30.08F
DANVILLE       LGT RAIN  51  51 100 NE9       30.05F
SOUTH BOSTON*  CLOUDY    51  50  95 NE3       30.07S
MARTINSVILLE   RAIN      48  47  93 NE5       30.06F
ROANOKE        LGT RAIN  49  46  90 SE8       30.08F
BLACKSBURG     RAIN      46  44  91 NE6       30.06F
DUBLIN*        LGT RAIN  47  43  87 E10       30.04F
MARION*        RAIN      46  44  95 E9        30.03S
HILLSVILLE*    RAIN      43  43 100 CALM      30.00S
RICHLANDS*     RAIN      47  45  94 SE17G26   29.95F
WISE*          RAIN      50  50 100 CALM      29.93F
ABINGDON*      RAIN      49  48  95 E15G26    29.92F
$$

MDZ021>025-VAZ099-100-232000-
SOUTHERN MARYLAND AND THE DELMARVA PENINSULA

CITY           SKY/WX    TMP DP  RH WIND       PRES   REMARKS
PATUXENT RIVER CLOUDY    57  48  72 VRB3      30.10F
BAY BRIDGE APT CLOUDY    57  45  62 NW6       30.10F
LEONARDTOWN    PTSUNNY   57  45  62 E3        30.11F
DOVER          CLOUDY    58  54  86 E9        30.11F
GEORGETOWN     CLOUDY    59  44  57 MISG      30.12F
EASTON         PTSUNNY   63  45  51 E6        30.13F
CAMBRIDGE      CLOUDY    61  46  59 VRB7      30.10F
SALISBURY      PTSUNNY   60  46  59 E9        30.10F
OCEAN CITY     CLOUDY    55  46  71 E13       30.12F
WALLOPS ISLAND MOSUNNY   56  47  71 NE14      30.11F
ACCOMACK*      CLOUDY    58  49  73 E6        30.09F
$$

NCZ012>017-030>032-232000-
NORTH CENTRAL AND EASTERN NORTH CAROLINA

CITY           SKY/WX    TMP DP  RH WIND       PRES   REMARKS
ROANOKE RAPIDS LGT RAIN  54  52  94 N7        30.05S
RALEIGH        LGT RAIN  54  52  93 NE13G22   30.01F FOG
ELIZABETH CITY LGT RAIN  57  54  89 NE20      30.05F
AHOSKIE*         N/A     55  51  84 NE7       30.04F
EDENTON*       CLOUDY    60  56  86 NE7       30.03F
CURRITUCK*     NOT AVBL
KILL DEVIL HLS CLOUDY    56  52  89 N6G16     30.02S
MANTEO         CLOUDY    56  53  87 NE20G25   30.03S
CAPE HATTERAS  CLOUDY    65  57  75 NE13G26   29.97F HAZE
TARBORO*       NOT AVBL
GOLDSBORO      CLOUDY    58  58 100 NE10      29.97F
WASHINGTON     CLOUDY    58  53  84 NE13G20   30.01F
GREENVILLE     CLOUDY    59  54  82 NE10G17   30.03S
NEW BERN       CLOUDY    59  58  96 NE14      29.99F
WILMINGTON     CLOUDY    64  62  93 NE14      29.93F
$$

VAZ048-232000-
ELSEWHERE

CITY           SKY/WX    TMP DP  RH WIND       PRES   REMARKS
HARRISBURG PA  PTSUNNY   64  40  41 CALM      30.08F
BALTIMORE      CLOUDY    59  41  51 SE8       30.10F
ANNAPOLIS      CLOUDY    59  45  59 SE6       30.10F
ANDREWS AFB    CLOUDY    58  42  56 NE5       30.09F
PHILADELPHIA   PTSUNNY   63  40  42 S3        30.10F
HENDERSON NC   LGT RAIN  50  49  95 NE9       30.04F
GREENSBORO     RAIN      51  51 100 NE17      29.98F FOG
ROCKY MOUNT    CLOUDY    57  52  83 NE8       30.02F
$$

VAZ100-232000-
MARINE

STATION/POSITION TIME  TEMP    WIND        PRES    WAVE   SWELL
                       AIR SEA DIR/SP/G            HT/PER HT/PER
                 (UTC) (F)     (DEG/KT/KT) (MB)    (FT/S) (FT/S)
CAPE MAY NJ      1848   53 56   90/  9/ 15 1019.6F
LEWES DE         1836   52 56   90/ 14/ 16 1020.0F
15NM E FENWICK I 1850   50 52   50/ 12/ 14 1020.5F   4/11   3/11
OCEAN-CITY-INLET 1836   54 57   80/  6/  9 1020.6F
WACHAPREAGUE VA  1842   55 62   40/ 13/ 17 1018.8S
THOMAS POINT MD  1900   55 58  340/  6/  7   N/A
GOOSES REEF MD   1900   55 55  350/  8/ 10 1020.1    1
COVE POINT MD    1842   54     350/  6/  7 1019.9F
SOLOMONS ISLAND  1842   55 62  130/  6/  7   N/A
BISHOPS HEAD MD  1848   57 62   80/  5/  7 1019.6F
PINEY POINT MD   1848          120/  8/ 10   N/A
POTOMAC MD       1900   55 62   70/  8/ 10 1018.4    0
CAMBRIDGE MD     1848   58 64   70/  6/  8 1018.6F
LEWISETTA VA     1842   55 62   90/  6/  7 1019.2F
RAPPAHANNOCK LGT 1848           80/ 10/ 12 1019.2F
STINGRAY PT      1900   56 62   70/ 12/ 14 1018.7    2/ 3
YORK RVR RNG VA  1842   56      70/ 13/ 14 1017.9F
YORKTOWN VA      1842   56 64   70/ 13/ 16 1018.1F
JAMESTOWN VA     1900   56 69   50/  8/ 12   N/A     0
DOMINION TERM VA 1842   56      60/  8/ 13 1018.5F
KIPTOPEKE VA     1842      61   60/ 10/ 14   N/A
CHES BAY BRIDGE  1842   54 62   50/ 18/ 19 1018.1F
CAPE HENRY VA    1842   54      30/ 17/ 20   N/A
WILLOUBY STN VA  1842   55      50/ 15/ 17 1019.3F
S CRANEY ISL VA  1842   55      60/ 13/ 19 1018.2F
CAPE HENRY BUOY  1842      57                N/A     5/ 6   2/11
1ST LANDING BUOY 1900   56 62              1019.0    3/ 4
CAPE CHARLES BUO 1851      58                N/A     5/11   2/11
64NM E OF VA BCH 1850   55 54   30/ 16/ 17 1017.4F   5/11   3/11
DUCK PIER NC     1842   55 63   10/ 19/ 22 1016.8R
44100 DUCK FRF   1835      56                N/A     6/12   2/12
44056 DUCK FRF   1830      60                N/A     5/11   2/11
OREGON INLET NC  1842   56 59   10/ 14/ 21 1016.2S
HATTERAS NC      1842   62 68   30/ 17/ 22 1014.8F
DIAMOND SHLS NC  1850   66 75   20/ 17/ 23 1014.2F   6/11   3/11
CAPE LOOKOUT NC  1900   64      40/ 18/ 21 1014.0F
$$




USA.gov is the U.S. government's official web portal to all federal, state and local government web resources and services.